Temperature
15 15 16 16 13 10 12 12 12 11 11 12 12 12 12 12 12 13 12 12 12 13 13 13 13 13 14 14 14 14 14 14 14 14 14 14 14 15 14 14 14 14 14 14 14 14 14 14 14
15 15 15 15 11 11 12 11 11 11 11 12 12 11 11 11 11 11 11 12 12 12 12 13 13 13 13 13 14 14 14 14 14 14 14 14 14 14 14 14 14 14 14 14 14 14 14 14 14
15 15 15 10 10 11 12 11 10 11 11 11 10 10 10 10 10 11 11 11 12 12 12 12 12 13 13 13 13 13 14 14 14 14 14 14 14 14 14 14 14 14 14 14 14 14 14 13 13
15 15 13 9 11 10 10 10 10 10 11 10 10 9 10 10 10 10 11 11 11 12 12 12 12 12 13 13 13 13 13 13 13 13 13 13 14 14 14 13 13 13 13 13 13 13 13 13 13
14 14 10 9 10 9 9 9 10 9 9 9 9 8 9 10 10 10 11 11 11 11 12 12 12 12 12 12 13 13 13 13 13 13 13 13 13 13 13 13 13 13 13 13 13 13 13 13 13
13 10 9 9 9 9 9 9 9 9 9 9 8 8 8 9 10 10 10 10 10 11 11 11 12 12 12 12 12 12 13 13 13 13 13 13 13 13 13 13 13 13 13 13 13 13 13 13 13
11 8 9 9 8 9 9 9 9 8 8 8 8 7 8 9 9 9 10 10 10 10 10 11 11 11 12 12 12 12 12 12 13 13 13 13 13 13 13 13 13 13 13 13 13 13 13 13 12
11 7 8 8 8 9 8 9 9 8 8 8 8 7 7 8 9 9 9 9 10 10 10 10 10 11 11 11 12 12 12 12 12 12 12 12 13 13 13 13 12 12 12 12 12 12 12 12 12
11 7 7 8 8 8 8 8 8 8 8 7 8 8 8 8 8 8 9 9 9 10 10 10 10 10 11 11 11 11 11 11 12 12 12 12 12 12 12 12 12 12 12 12 12 12 12 12 12
9 7 8 8 8 7 7 7 7 7 6 6 7 7 7 7 8 8 8 8 9 9 9 9 10 10 10 10 10 11 11 11 11 11 11 12 12 12 12 12 12 12 12 12 12 12 12 12 11
6 6 7 7 7 7 7 7 7 6 5 6 6 6 6 7 7 7 7 8 8 8 9 9 9 9 9 10 10 10 10 10 10 10 11 11 11 11 11 11 11 11 11 11 11 11 11 11 11
5 6 6 7 7 7 6 6 6 6 6 6 6 6 6 6 6 7 7 7 7 8 8 8 8 9 9 9 9 10 10 10 10 10 10 10 10 11 11 11 11 11 11 11 11 11 11 11 11
5 5 6 6 6 6 6 5 5 5 6 6 6 6 5 6 6 6 6 6 7 7 7 8 8 8 8 8 9 9 9 9 9 10 10 10 10 10 10 10 10 10 10 10 10 10 10 10 10
5 5 5 5 6 5 5 4 5 4 5 5 5 5 5 5 5 6 6 6 6 6 7 7 7 7 8 8 8 9 9 9 9 9 9 9 10 10 10 10 10 10 10 10 10 10 10 10 10
5 4 5 5 5 5 5 4 4 5 4 4 4 4 5 5 5 5 5 5 6 6 6 6 7 7 7 7 8 8 8 8 9 9 9 9 9 9 9 9 9 9 9 9 9 9 9 9 9
4 4 4 5 4 5 5 4 4 4 4 4 4 4 4 4 4 4 4 5 5 5 5 6 6 6 6 7 7 7 8 8 8 8 8 8 8 9 9 9 9 9 9 9 9 9 9 9 9
3 3 4 4 4 4 4 3 3 4 3 3 3 3 3 4 4 4 4 4 5 5 5 5 6 6 6 6 6 7 7 7 7 7 7 8 8 8 8 8 8 8 8 8 8 8 8 8 8
4 3 3 3 3 3 2 2 2 3 2 2 2 3 3 3 3 4 4 4 4 4 5 5 5 5 5 6 6 6 6 6 7 7 7 7 7 8 7 8 8 8 8 8 8 8 8 8 8
3 3 2 2 3 2 2 2 2 2 2 2 2 2 2 3 3 3 3 4 4 4 4 4 5 5 5 5 5 5 6 6 6 6 6 7 7 7 7 7 7 7 7 7 7 7 7 7 7
3 3 2 2 3 3 1 1 1 1 1 1 1 1 2 2 3 3 3 3 3 3 3 4 4 4 4 5 5 5 5 5 6 6 6 6 6 6 7 7 7 7 7 7 7 7 7 7 7
3 2 2 2 2 2 1 2 2 1 1 1 1 1 1 2 2 2 2 3 3 3 3 3 3 3 4 4 4 4 4 4 5 5 5 5 5 6 6 6 6 6 6 7 6 6 7 7 6
3 3 2 2 1 1 1 1 2 1 0 1 1 1 1 1 1 2 2 2 2 2 2 3 3 3 3 3 4 4 4 4 4 4 4 4 5 5 5 6 6 6 6 6 6 6 6 6 6
2 2 1 1 1 -0 -0 0 1 0 1 0 -0 0 0 1 1 1 1 2 2 2 2 2 2 3 3 3 3 3 3 3 4 4 4 4 4 4 5 5 5 5 5 6 6 6 6 6 6
1 1 1 -0 -0 1 0 0 1 -0 0 0 -0 -0 -0 0 0 1 1 1 1 2 2 2 2 2 2 2 3 3 3 3 3 3 3 3 4 4 4 4 4 4 5 5 5 5 5 5 5
1 1 1 1 0 1 -0 -0 0 -1 -1 -1 -1 -1 -0 -0 -0 0 0 0 1 1 1 1 1 2 2 2 2 2 2 2 2 3 3 3 3 3 3 3 4 4 4 4 5 5 5 5 5
0 1 1 2 1 0 -1 -1 -0 -1 -1 -1 -1 -1 -1 -1 -1 -0 -0 -0 0 0 1 1 1 1 1 1 2 2 2 2 2 2 2 2 2 3 3 3 3 3 4 4 4 4 4 4 4
0 -1 -1 -1 -2 -2 -1 -2 -1 -1 -2 -2 -2 -2 -1 -1 -1 -1 -1 -0 -0 -0 0 0 1 1 1 1 1 1 1 1 1 1 1 2 2 2 2 2 3 3 3 3 3 3 3 4 4
-1 -2 -2 -1 -0 -0 -1 -1 -1 -1 -1 -2 -3 -3 -2 -2 -1 -1 -1 -1 -1 -1 -0 -0 0 0 0 0 0 0 0 0 1 1 1 1 1 2 2 2 2 2 2 3 3 3 3 3 3
-2 -2 -2 -2 -1 -1 -1 0 -1 -1 -2 -2 -3 -2 -2 -2 -2 -1 -1 -1 -1 -1 -1 -1 -1 -0 -0 -0 -0 -0 -0 -0 0 0 1 1 1 1 1 1 1 2 2 2 2 2 2 2 3
-2 -3 -3 -1 -2 -3 -2 -1 -1 -3 -3 -3 -3 -2 -2 -2 -2 -2 -2 -2 -2 -2 -2 -1 -1 -1 -1 -1 -1 -1 -1 -1 -0 -0 -0 0 0 0 1 1 1 1 1 1 2 2 2 2 2
Wind_Speed
11 7 3 4 5 4 2 3 1 0 1 1 1 2 4 3 2 2 2 3 5 5 3 3 4 5 5 6 7 7 8 8 8 9 9 9 10 11 12 12 12 13 13 14 14 14 14 15 15
6 3 5 5 4 2 4 3 2 1 1 1 3 2 3 1 2 2 3 5 5 5 4 3 5 5 5 6 6 7 7 8 8 8 8 8 9 11 11 11 12 12 13 13 14 14 14 14 15
3 4 4 4 4 6 4 2 3 0 2 2 2 2 1 1 1 1 2 4 5 6 6 4 5 5 5 6 6 6 7 7 8 8 8 8 8 9 10 11 12 12 12 13 13 13 13 13 14
3 5 5 4 3 4 3 1 1 1 2 3 2 2 1 2 1 1 2 4 5 6 7 5 5 5 6 5 6 6 6 7 8 8 8 8 8 9 9 10 11 12 12 12 12 13 13 13 13
4 4 4 1 4 2 1 0 1 1 0 2 2 1 1 2 3 3 3 4 4 5 6 6 5 6 6 6 5 5 6 7 7 8 8 8 8 8 8 9 10 11 11 12 12 12 12 12 13
4 4 4 4 5 2 1 1 1 1 1 1 2 1 1 2 4 3 3 3 4 4 6 6 6 6 6 6 6 6 5 6 7 7 8 7 7 8 8 8 9 10 10 11 11 12 12 12 12
4 4 4 5 4 2 1 1 2 1 1 1 1 1 1 2 2 3 3 3 4 5 5 6 6 5 6 7 6 6 6 6 6 7 7 7 7 7 8 8 9 10 10 10 10 11 12 12 12
4 4 3 3 4 3 0 1 1 1 1 0 2 3 2 2 2 3 3 3 3 5 5 5 6 5 5 5 6 7 7 6 6 6 7 7 7 7 8 8 8 9 10 10 10 11 12 12 11
3 4 3 5 5 3 0 1 2 1 2 1 0 1 2 0 2 3 3 4 4 4 4 5 5 6 4 4 4 5 6 6 6 6 6 7 6 7 7 7 8 9 9 10 10 11 11 11 11
4 3 4 2 2 2 0 1 1 1 1 1 2 2 2 2 2 2 2 2 3 4 4 4 4 5 5 3 4 4 4 5 6 6 5 5 6 6 7 8 8 9 9 10 10 11 10 10 9
3 3 1 1 1 1 0 1 0 2 2 3 3 3 0 1 1 0 1 2 3 2 3 4 4 4 4 3 3 3 3 4 5 6 6 5 5 7 7 6 7 7 8 8 9 9 8 8 8
3 1 0 1 2 1 1 1 0 2 4 2 2 2 1 0 2 2 3 3 3 2 2 3 4 3 3 3 3 3 3 3 4 4 5 5 4 4 5 4 5 6 6 6 6 6 7 8 8
2 1 2 2 2 1 1 1 2 2 3 1 1 0 1 2 3 3 3 2 3 2 3 3 3 2 2 2 2 2 2 2 3 4 4 4 3 3 4 4 4 5 5 6 5 5 6 6 6
1 1 1 2 2 1 1 2 1 3 1 1 1 1 1 1 2 3 3 3 3 3 3 3 2 2 2 2 1 1 2 2 3 3 3 3 3 2 3 3 3 4 4 5 5 5 5 5 5
2 2 4 3 2 1 2 4 2 3 0 1 1 2 2 3 2 3 3 2 2 2 3 3 2 2 2 2 1 2 2 2 2 2 2 3 3 3 3 3 2 2 3 5 5 5 5 4 4
3 4 3 4 2 2 2 5 3 1 0 2 3 3 3 3 3 3 3 2 1 2 2 3 3 2 1 2 2 2 2 2 2 2 2 2 3 3 3 3 2 2 3 4 3 3 3 3 3
5 2 3 5 2 2 0 6 5 3 2 3 3 3 3 4 5 4 3 2 1 1 1 2 2 2 1 1 2 2 2 2 2 2 2 1 3 3 3 3 2 3 3 3 2 2 3 3 3
2 2 3 5 3 2 3 7 8 4 2 3 3 3 3 4 5 4 3 1 1 1 0 1 2 2 1 1 1 2 2 2 2 2 2 2 2 3 3 2 2 3 3 2 2 2 3 3 3
2 3 5 6 3 2 6 9 10 5 3 3 3 3 4 5 4 3 2 1 2 2 2 1 2 2 1 1 0 1 1 0 1 2 2 2 2 3 3 2 2 2 3 3 3 2 4 2 2
1 2 4 5 2 3 5 9 7 5 4 4 4 4 4 5 5 4 3 2 1 1 1 1 1 2 1 0 1 2 1 1 1 2 2 2 2 2 3 2 2 2 3 3 3 3 3 2 2
2 4 4 5 6 2 3 6 4 3 2 2 2 2 4 4 5 5 4 3 2 2 1 1 1 1 1 0 0 1 1 1 1 1 0 2 2 2 2 2 2 2 4 4 4 3 4 3 1
4 3 3 3 3 4 3 5 6 4 5 4 4 4 4 4 4 4 4 3 3 3 2 2 2 1 1 1 1 2 2 1 1 1 1 1 2 2 1 2 2 2 2 4 4 3 3 4 3
4 3 2 2 1 3 1 2 7 2 5 7 6 5 5 4 4 4 4 2 2 2 2 2 2 2 1 1 1 3 2 1 0 0 1 0 1 1 1 1 1 1 2 3 4 4 3 3 3
2 2 2 3 3 2 3 3 7 3 4 6 7 6 5 5 4 3 2 2 2 2 2 2 3 3 2 1 1 2 2 1 0 0 1 1 1 0 2 1 1 1 1 2 4 4 4 4 3
4 4 4 5 3 5 1 3 8 4 4 4 6 7 5 4 4 4 3 2 2 2 2 3 2 3 2 2 1 1 2 2 2 2 2 2 1 1 1 1 0 1 1 1 1 4 4 4 4
1 3 3 3 4 5 3 6 6 3 4 4 5 5 4 4 4 4 3 3 2 2 2 2 2 2 2 2 1 1 1 2 2 2 2 2 2 3 2 1 1 1 1 2 1 2 4 3 4
1 1 2 3 1 4 6 7 7 2 5 5 6 5 5 5 5 5 4 3 3 3 3 3 2 2 2 2 2 2 1 1 1 1 1 2 2 2 1 1 1 1 1 1 2 2 4 3 4
2 4 4 3 1 5 7 6 5 6 6 6 6 6 6 6 6 5 4 3 3 3 3 3 2 2 3 2 2 1 2 1 1 1 1 1 2 1 1 1 2 2 2 2 3 3 3 4 3
2 2 2 2 3 3 5 7 5 5 4 5 6 6 6 6 6 6 5 4 3 3 3 3 3 2 2 2 2 2 1 1 1 1 2 2 2 2 2 2 2 2 2 2 2 3 3 4 4
3 4 4 3 4 4 4 8 3 3 4 4 6 7 7 6 5 5 4 3 3 3 3 3 3 2 2 2 2 2 2 1 1 2 2 2 2 2 2 2 2 3 3 3 3 4 3 4 5
Wind_Direction
338 347 47 54 60 59 214 231 191 338 1 3 19 97 129 139 158 184 341 6 4 357 359 14 36 54 62 67 66 79 93 97 96 96 99 102 111 114 112 111 109 108 106 103 100 99 98 97 97
335 7 52 61 100 168 244 215 189 212 183 62 32 49 70 75 28 27 354 344 1 13 17 25 44 62 68 73 72 75 90 99 97 94 95 97 105 113 113 112 110 108 106 104 103 102 100 100 100
0 43 79 82 128 190 204 191 192 88 56 58 44 35 45 5 9 356 332 344 12 20 17 24 48 59 66 78 78 76 85 97 98 95 96 96 97 104 112 112 111 109 108 107 106 106 104 103 103
53 48 60 87 193 222 200 220 195 123 21 38 77 25 4 18 351 328 358 17 26 19 17 23 54 57 62 75 82 78 89 93 97 97 98 98 97 99 103 110 112 111 110 110 109 109 109 107 106
50 79 78 86 234 251 240 251 155 132 20 18 70 102 316 4 39 42 40 33 30 15 16 25 50 59 65 69 70 80 96 94 92 97 99 99 99 100 100 105 113 114 114 112 110 111 111 109 107
52 72 112 197 228 256 253 331 97 102 111 36 69 120 245 26 38 21 23 29 24 21 19 24 41 54 61 70 69 67 95 97 91 92 98 98 99 102 101 107 113 115 114 114 114 114 111 109 108
102 100 156 183 204 236 216 28 123 138 136 240 151 148 257 341 8 15 17 31 29 27 27 24 28 44 51 63 73 69 84 93 89 86 87 93 94 98 104 110 113 116 114 115 118 118 113 110 108
110 105 128 182 189 224 248 26 73 126 203 360 122 163 239 283 357 33 35 37 35 27 26 22 22 30 44 57 64 71 75 81 83 84 82 85 92 95 99 109 112 115 113 112 116 116 113 109 105
75 84 180 203 192 207 113 48 354 37 98 21 35 222 285 57 71 50 25 13 11 10 12 19 19 18 26 54 63 63 68 66 71 76 79 87 91 92 92 95 109 110 110 110 112 115 113 108 104
65 136 202 211 186 178 190 176 192 44 20 339 335 349 27 63 89 69 16 349 342 340 347 7 12 13 16 36 55 58 66 70 65 61 61 76 92 94 92 92 102 103 105 109 109 111 111 105 101
65 151 182 319 346 125 142 294 7 150 256 238 250 276 345 25 17 22 288 287 287 301 333 345 357 11 17 23 44 44 57 70 66 65 61 59 83 89 86 85 90 91 97 101 104 101 105 106 105
74 4 326 304 345 2 202 203 294 207 251 270 224 209 183 252 300 271 269 285 289 307 315 336 350 6 9 25 46 52 52 56 63 65 65 64 73 82 85 82 87 84 89 92 95 99 102 103 103
67 351 354 351 1 4 30 247 219 264 285 322 117 126 273 282 294 293 280 290 302 309 313 320 342 2 10 23 39 51 56 61 63 69 67 67 69 89 89 87 89 83 87 93 90 96 101 101 98
106 73 340 345 3 17 21 303 203 267 322 24 66 267 284 296 299 317 319 313 317 321 321 309 338 359 30 25 50 54 50 60 72 63 60 66 77 92 94 90 86 79 87 92 99 103 106 104 99
88 42 3 351 359 2 22 328 231 243 341 338 302 284 307 310 314 302 289 283 296 306 314 322 337 3 33 28 44 65 52 62 70 61 64 66 81 108 104 90 82 82 93 90 91 86 97 100 96
50 48 351 319 354 348 52 280 278 266 250 284 281 292 309 313 311 305 308 305 308 311 322 326 347 360 17 25 31 54 65 75 67 64 66 60 84 101 116 110 96 108 103 93 91 97 107 106 108
40 16 293 303 327 1 331 265 286 296 249 272 289 308 312 316 325 326 317 309 322 296 316 340 355 3 4 21 37 58 66 68 65 64 56 59 90 98 102 112 105 122 103 87 93 105 118 123 115
284 285 279 278 296 339 273 268 288 293 257 261 283 306 316 314 315 318 312 313 48 65 67 355 9 7 15 33 47 68 62 61 61 63 45 58 84 103 97 99 107 117 113 106 107 124 102 126 122
186 212 262 268 276 292 258 276 286 280 269 270 285 296 303 306 313 329 333 360 55 65 69 26 17 4 32 30 303 188 201 110 75 58 51 69 84 98 103 93 113 118 132 136 129 130 123 113 119
204 247 267 293 309 284 281 281 276 257 239 240 252 278 294 316 330 339 352 5 4 26 62 51 4 1 357 301 237 200 196 196 104 55 58 71 89 105 117 116 124 138 138 132 131 126 138 133 129
259 226 251 283 323 333 327 303 279 294 290 305 292 285 302 304 306 315 328 338 347 349 334 338 340 333 330 337 290 102 84 83 42 7 13 43 74 101 114 133 139 138 156 164 164 149 148 158 165
270 251 264 281 336 305 30 293 283 302 307 309 309 315 315 317 309 305 312 324 332 327 337 358 0 360 65 89 89 121 131 178 245 253 241 25 42 62 103 132 142 146 161 168 176 165 162 159 170
250 299 279 240 189 309 343 235 283 324 302 307 307 305 311 308 299 294 298 293 311 331 343 354 11 21 44 107 118 128 129 165 271 253 138 152 34 34 58 111 117 149 156 169 175 177 168 168 170
290 2 42 63 73 301 243 204 280 267 277 308 314 311 311 309 308 305 319 336 337 353 1 6 21 14 14 49 117 149 156 170 154 280 186 207 208 43 19 32 111 160 168 170 184 184 183 185 175
37 58 10 354 353 260 249 234 255 261 276 285 297 303 304 307 311 320 337 336 326 338 345 349 3 356 355 16 24 200 184 185 199 216 208 207 207 206 232 297 286 239 206 178 171 185 190 191 185
350 124 148 237 259 287 296 246 256 255 296 307 306 305 315 315 312 306 303 305 316 323 328 332 330 327 332 356 339 304 229 202 206 210 209 212 218 216 222 258 275 296 209 183 174 195 200 197 197
117 155 165 148 287 286 273 283 296 293 321 329 330 330 319 314 312 307 309 312 313 314 314 303 300 313 318 327 331 325 284 210 231 246 210 221 236 231 205 243 256 263 223 204 181 199 210 203 204
130 146 100 123 256 282 288 281 276 302 308 310 314 311 310 316 316 313 300 301 308 306 309 308 299 297 314 326 314 318 338 301 240 248 248 241 259 249 203 211 229 236 218 207 193 195 211 202 210
103 119 135 160 189 212 282 276 231 248 276 280 286 293 296 302 303 302 297 302 308 311 313 309 307 319 325 314 318 319 315 317 295 251 248 242 243 238 211 213 221 222 215 208 200 206 210 209 213
172 184 165 185 238 208 241 273 257 260 287 285 292 301 302 301 304 305 299 305 310 310 311 301 303 310 311 313 312 304 310 322 313 291 264 259 248 251 234 219 217 225 223 212 208 212 218 214 214
Height
1499 1500 1502 1504 1509 1522 1524 1521 1519 1519 1519 1519 1518 1518 1519 1521 1523 1528 1524 1522 1522 1523 1524 1525 1526 1527 1528 1529 1529 1530 1531 1533 1534 1535 1535 1536 1537 1538 1539 1540 1541 1542 1542 1543 1544 1544 1545 1545 1546
1499 1501 1503 1504 1515 1526 1523 1519 1519 1518 1518 1518 1518 1518 1519 1520 1521 1522 1520 1521 1522 1523 1523 1524 1525 1526 1527 1528 1529 1530 1531 1533 1534 1535 1536 1536 1537 1538 1539 1540 1541 1542 1543 1544 1545 1545 1546 1546 1547
1499 1501 1503 1508 1519 1522 1518 1517 1518 1518 1518 1518 1519 1519 1520 1521 1521 1521 1521 1521 1522 1522 1523 1524 1525 1526 1526 1527 1528 1530 1531 1532 1533 1535 1536 1536 1537 1538 1539 1540 1541 1542 1543 1544 1545 1546 1546 1547 1548
1500 1502 1504 1513 1518 1517 1517 1517 1517 1517 1518 1518 1519 1520 1520 1522 1521 1521 1521 1521 1522 1522 1523 1523 1524 1525 1526 1527 1528 1529 1530 1531 1533 1534 1535 1536 1537 1538 1539 1540 1541 1542 1543 1544 1545 1546 1547 1548 1549
1499 1501 1510 1519 1518 1516 1516 1516 1516 1517 1518 1519 1519 1520 1520 1521 1521 1521 1521 1521 1521 1522 1522 1522 1523 1524 1525 1526 1527 1528 1529 1531 1532 1533 1535 1536 1537 1538 1539 1540 1541 1542 1544 1545 1546 1547 1548 1549 1550
1500 1502 1515 1520 1517 1516 1516 1516 1516 1517 1518 1519 1519 1519 1519 1520 1520 1520 1520 1520 1521 1521 1522 1522 1523 1524 1524 1525 1526 1527 1529 1530 1531 1533 1534 1535 1536 1538 1539 1540 1541 1542 1543 1545 1546 1547 1548 1549 1550
1501 1507 1514 1516 1518 1517 1516 1515 1516 1517 1517 1519 1519 1519 1518 1519 1519 1519 1519 1520 1520 1520 1521 1521 1522 1523 1523 1524 1525 1526 1527 1529 1530 1532 1533 1534 1536 1537 1538 1539 1540 1542 1543 1544 1546 1547 1548 1549 1550
1501 1508 1515 1517 1517 1516 1515 1515 1516 1517 1517 1518 1519 1519 1518 1518 1518 1518 1518 1519 1519 1519 1520 1521 1521 1521 1522 1523 1524 1525 1526 1527 1529 1530 1532 1533 1534 1536 1537 1539 1540 1541 1543 1544 1545 1547 1548 1549 1550
1502 1511 1516 1516 1515 1515 1514 1515 1516 1517 1517 1517 1518 1518 1518 1517 1516 1516 1516 1517 1517 1518 1518 1519 1519 1520 1521 1521 1523 1524 1525 1526 1527 1529 1530 1531 1533 1534 1536 1538 1539 1540 1542 1543 1545 1546 1547 1549 1550
1504 1514 1514 1513 1513 1513 1514 1514 1515 1516 1516 1516 1516 1516 1516 1515 1515 1514 1514 1514 1514 1515 1516 1517 1517 1518 1518 1520 1521 1522 1523 1525 1525 1526 1528 1530 1531 1533 1535 1536 1538 1539 1541 1543 1544 1545 1547 1548 1549
1507 1512 1512 1512 1512 1512 1513 1514 1515 1515 1516 1515 1514 1513 1513 1513 1513 1513 1513 1513 1513 1513 1514 1515 1515 1516 1516 1518 1519 1520 1522 1523 1524 1525 1526 1528 1529 1531 1533 1535 1536 1538 1540 1541 1543 1544 1546 1547 1549
1511 1513 1512 1512 1512 1512 1513 1513 1514 1514 1514 1514 1513 1512 1512 1511 1511 1511 1511 1511 1511 1511 1511 1512 1513 1514 1515 1515 1517 1518 1519 1521 1522 1523 1525 1526 1528 1529 1531 1533 1534 1536 1538 1540 1542 1543 1545 1546 1548
1512 1513 1513 1513 1512 1512 1512 1513 1513 1513 1512 1512 1511 1511 1510 1510 1509 1509 1509 1509 1509 1509 1509 1509 1510 1511 1512 1513 1514 1515 1517 1518 1519 1521 1523 1524 1526 1527 1528 1530 1533 1535 1537 1539 1540 1542 1544 1545 1547
1513 1514 1513 1513 1512 1512 1512 1512 1513 1511 1511 1510 1509 1509 1508 1508 1507 1506 1506 1506 1506 1506 1506 1507 1508 1509 1510 1510 1512 1513 1514 1516 1517 1519 1521 1522 1524 1525 1526 1528 1531 1533 1535 1537 1539 1541 1542 1544 1546
1513 1514 1514 1513 1513 1513 1513 1512 1511 1510 1510 1509 1508 1507 1506 1506 1505 1504 1504 1504 1503 1503 1504 1504 1505 1506 1507 1508 1509 1510 1512 1513 1515 1517 1518 1520 1522 1524 1525 1526 1529 1531 1533 1535 1537 1539 1541 1543 1544
1514 1517 1519 1515 1513 1513 1516 1515 1510 1509 1508 1506 1506 1505 1504 1503 1502 1502 1501 1501 1501 1501 1501 1502 1502 1503 1504 1505 1506 1508 1509 1511 1513 1514 1516 1518 1520 1522 1523 1525 1527 1529 1531 1533 1535 1537 1539 1541 1542
1521 1524 1522 1518 1514 1514 1515 1514 1509 1507 1506 1505 1504 1503 1502 1500 1500 1499 1499 1499 1499 1499 1499 1499 1500 1500 1501 1502 1503 1505 1507 1508 1510 1512 1514 1515 1517 1519 1520 1522 1525 1527 1529 1531 1533 1536 1537 1539 1541
1524 1525 1524 1521 1516 1515 1516 1513 1508 1506 1505 1504 1502 1501 1500 1499 1498 1498 1497 1497 1497 1497 1497 1497 1498 1499 1499 1500 1501 1503 1504 1506 1507 1509 1511 1513 1514 1516 1518 1520 1522 1524 1527 1529 1531 1533 1535 1537 1539
1522 1524 1525 1521 1516 1517 1514 1511 1506 1504 1503 1502 1501 1500 1498 1497 1497 1496 1496 1495 1495 1496 1495 1496 1497 1496 1497 1498 1498 1499 1501 1502 1504 1506 1508 1510 1512 1513 1515 1517 1520 1522 1524 1526 1529 1531 1533 1535 1537
1522 1523 1523 1519 1516 1516 1514 1510 1503 1501 1500 1500 1499 1498 1497 1495 1494 1493 1493 1493 1494 1494 1494 1494 1495 1494 1495 1495 1496 1497 1498 1500 1501 1503 1505 1507 1508 1511 1512 1515 1516 1518 1521 1523 1526 1528 1530 1532 1534
1521 1522 1522 1521 1518 1515 1516 1509 1503 1499 1499 1498 1498 1497 1496 1495 1493 1492 1491 1491 1491 1491 1492 1492 1492 1493 1493 1493 1494 1495 1496 1498 1499 1501 1502 1504 1506 1507 1509 1511 1513 1515 1517 1520 1522 1525 1527 1529 1531
1521 1519 1519 1520 1522 1523 1521 1519 1504 1501 1499 1497 1496 1496 1494 1493 1492 1491 1490 1489 1489 1489 1490 1490 1490 1490 1490 1491 1491 1492 1493 1494 1495 1497 1499 1501 1503 1504 1506 1508 1510 1512 1514 1516 1519 1521 1524 1526 1528
1521 1519 1519 1520 1523 1526 1524 1524 1507 1503 1500 1497 1495 1494 1493 1492 1491 1490 1489 1489 1489 1489 1488 1488 1488 1488 1489 1489 1489 1490 1491 1492 1493 1494 1496 1498 1500 1501 1503 1505 1507 1509 1511 1513 1516 1518 1521 1523 1525
1520 1520 1520 1524 1526 1524 1522 1524 1511 1505 1501 1497 1494 1492 1491 1490 1489 1488 1488 1487 1487 1487 1487 1487 1486 1487 1487 1487 1487 1488 1489 1490 1491 1491 1493 1494 1496 1498 1500 1502 1504 1506 1508 1510 1512 1515 1517 1520 1522
1522 1524 1527 1527 1531 1524 1523 1521 1510 1502 1499 1497 1495 1492 1490 1489 1488 1486 1485 1485 1485 1485 1485 1485 1485 1485 1485 1485 1485 1485 1486 1486 1487 1488 1489 1491 1492 1494 1497 1499 1500 1502 1504 1507 1509 1511 1514 1516 1518
1526 1526 1530 1531 1531 1526 1523 1519 1505 1499 1497 1495 1494 1492 1489 1488 1487 1486 1485 1484 1483 1483 1484 1483 1483 1483 1482 1482 1482 1482 1483 1484 1485 1485 1486 1488 1489 1491 1493 1495 1497 1499 1501 1503 1506 1508 1510 1512 1515
1526 1531 1531 1536 1539 1538 1524 1516 1504 1497 1495 1493 1492 1490 1488 1487 1486 1485 1483 1482 1482 1482 1481 1481 1481 1480 1480 1480 1480 1480 1480 1481 1482 1483 1484 1485 1486 1488 1490 1492 1494 1496 1497 1499 1502 1504 1506 1508 1510
1528 1530 1535 1535 1534 1531 1522 1518 1506 1498 1495 1493 1492 1490 1488 1486 1484 1483 1483 1482 1481 1480 1480 1479 1478 1478 1478 1477 1477 1477 1477 1478 1479 1480 1481 1482 1483 1485 1486 1488 1490 1492 1494 1496 1497 1499 1502 1504 1506
1530 1531 1532 1535 1533 1532 1526 1511 1499 1496 1493 1493 1491 1489 1487 1485 1483 1482 1481 1480 1480 1479 1478 1477 1476 1475 1475 1475 1475 1474 1474 1475 1476 1477 1477 1479 1480 1481 1483 1485 1486 1488 1489 1491 1493 1495 1497 1499 1501
1528 1530 1533 1531 1532 1536 1532 1513 1494 1494 1492 1491 1490 1488 1486 1485 1483 1481 1480 1478 1477 1476 1475 1475 1474 1473 1473 1473 1472 1472 1472 1472 1473 1474 1474 1475 1476 1478 1479 1481 1482 1484 1485 1487 1489 1491 1493 1495 1496